Zurück zum Katalog

STARLINK-33773

AktivKommunikationVLEO
NORAD 63713·PAYLOAD·🇺🇸 United States

Gestartet Apr 28, 2025 von Vandenberg Space Force Base

Loading…

Nächste Überflüge (nächste 24 Stunden)

TLE

AktuellSource: CelesTrak SupGP

Epoche: Sep 15, 2026, 02:19 UTC

1 63713C 25087S   26258.09701389 -.00029367  00000+0 -94447-3 0  2589
2 63713  53.1595  58.0847 0001181  82.0406 239.7693 15.31713153    13

Verfolge STARLINK-33773 in Echtzeit mit AllMySat

Download on the App Store